This is the latest recevied weather packets stored in our database for station/object IK3SVW-3. If no packets are shown the sender has not sent any weather packets the latest 10 day(s).
| Time | Temp. | Humidity | Pressure | Rain* | Wind** | Luminosity | Snow |
|---|---|---|---|---|---|---|---|
| 1777896542 | 23.89° C | 38% | 1015 hPa | 0 mm | - | - | - |
| 1777896285 | 23.89° C | 38% | 1015 hPa | 0 mm | - | - | - |
| 1777895686 | 23.89° C | 34% | 1015 hPa | 0 mm | - | - | - |
| 1777893713 | 22.78° C | 33% | 1015 hPa | 0 mm | - | - | - |
| 1777893345 | 22.78° C | 33% | 1016 hPa | 0 mm | - | - | - |
| 1777892686 | 22.78° C | 33% | 1016 hPa | 0 mm | - | - | - |
| 1777890405 | 22.22° C | 33% | 1016 hPa | 0 mm | - | - | - |
| 1777889745 | 22.22° C | 33% | 1016 hPa | 0 mm | - | - | - |
| 1777887467 | 21.67° C | 33% | 1016 hPa | 0 mm | - | - | - |
| 1777886146 | 21.11° C | 34% | 1016 hPa | 0 mm | - | - | - |
| 1777885493 | 21.11° C | 34% | 1016 hPa | 0 mm | - | - | - |
| 1777885139 | 21.11° C | 34% | 1016 hPa | 0 mm | - | - | - |
| 1777884465 | 20.56° C | 34% | 1016 hPa | 0 mm | - | - | - |
| 1777883805 | 20.56° C | 35% | 1016 hPa | 0 mm | - | - | - |
| 1777883205 | 20.56° C | 35% | 1017 hPa | 0 mm | - | - | - |
| 1777881885 | 20° C | 36% | 1017 hPa | 0 mm | - | - | - |
| 1777881107 | 19.44° C | 36% | 1017 hPa | 0 mm | - | - | - |
| 1777879605 | 18.89° C | 39% | 1016 hPa | 0 mm | - | - | - |
| 1777878286 | 18.33° C | 44% | 1016 hPa | 0 mm | - | - | - |
| 1777877985 | 18.33° C | 45% | 1016 hPa | 0 mm | - | - | - |
| 1777876005 | 17.22° C | 47% | 1016 hPa | 0 mm | - | - | - |
| 1777875346 | 17.22° C | 47% | 1016 hPa | 0 mm | - | - | - |
| 1777874689 | 16.67° C | 48% | 1016 hPa | 0 mm | - | - | - |
| 1777873065 | 16.11° C | 51% | 1016 hPa | 0 mm | - | - | - |
| 1777872405 | 15.56° C | 53% | 1016 hPa | 0 mm | - | - | - |
* Rain latest hour (hover to see other rain measurements)
** Current wind speed in m/s (hover to see current wind gust speed)